Temp
67 62 58 63 63 67 65 63 64 65 71 66 65 64 68 71 71 66 66 66 65 66 66 65 64 64 63 62 57 60 57 57 58 52 50 48 47 48 49 50 52 52 52 52
63 59 67 69 68 67 66 64 62 66 70 68 64 64 67 71 70 68 68 68 66 64 62 62 61 61 61 58 58 57 57 58 55 51 50 49 48 49 49 49 51 52 52 52
58 66 72 70 66 67 64 63 63 65 66 64 61 62 62 66 68 70 71 70 67 63 61 60 60 60 59 57 58 56 55 56 54 51 50 49 49 48 48 48 49 51 52 52
60 70 70 66 67 68 59 71 70 67 61 54 62 51 57 60 63 67 69 67 65 65 63 61 60 58 58 57 58 56 55 56 52 51 49 48 46 46 46 46 47 49 51 51
61 65 65 64 67 71 67 71 69 67 59 55 55 50 57 59 56 61 63 66 66 64 61 60 59 59 59 59 57 55 54 52 51 50 48 47 46 46 47 47 48 48 49 50
65 68 69 69 74 72 72 66 63 56 52 47 53 51 52 54 58 62 66 67 64 62 62 61 60 59 58 57 57 56 53 50 51 50 49 48 48 47 47 48 47 48 48 48
62 63 68 73 64 67 66 58 47 45 44 46 51 50 54 60 62 65 66 64 63 63 61 60 58 56 56 55 56 55 51 50 49 50 49 49 49 48 48 48 47 48 47 47
54 52 64 70 67 62 61 60 48 41 41 48 53 49 57 63 65 65 65 64 62 62 61 60 59 57 55 56 55 56 51 49 49 49 49 49 49 48 48 48 48 47 46 47
51 56 70 71 72 70 60 56 63 52 45 45 48 55 62 61 60 61 60 61 60 62 61 60 60 57 57 57 57 55 51 49 49 50 49 49 49 49 49 49 48 47 47 50
62 55 67 70 71 65 65 67 54 47 41 39 45 49 51 58 58 59 58 59 61 61 61 61 62 58 58 58 57 53 53 50 50 50 49 50 49 50 50 48 49 48 48 48
62 58 59 63 60 62 60 57 54 52 48 43 41 47 57 61 62 60 60 60 60 60 60 62 63 59 59 58 55 53 52 50 50 50 49 49 49 50 50 49 49 48 48 48
63 58 52 58 66 68 63 62 57 49 48 45 45 49 64 62 64 62 58 59 61 61 63 62 59 58 57 56 55 53 53 52 51 49 49 49 50 50 49 49 49 49 48 49
64 54 48 53 57 61 62 60 57 53 49 46 46 49 64 61 60 59 57 59 60 62 60 58 57 57 57 56 56 54 54 52 51 50 50 49 49 49 49 49 48 49 49 49
70 54 56 51 55 60 60 64 60 55 47 51 51 55 59 59 59 57 58 60 61 61 59 58 57 57 57 57 56 54 53 53 51 51 50 49 48 48 49 48 48 49 49 49
63 57 58 60 64 64 63 64 63 59 59 56 60 57 63 64 61 60 61 62 61 58 58 58 57 56 56 56 55 55 54 53 52 51 50 50 49 49 49 49 49 49 49 50
57 56 59 58 63 64 63 66 63 63 62 59 60 57 62 61 63 61 62 62 59 59 60 60 59 58 57 56 54 55 53 53 52 52 51 51 49 50 49 49 49 49 49 48
56 53 51 52 60 61 54 60 61 61 62 62 56 62 60 59 62 62 62 64 61 61 61 60 59 58 58 57 56 53 53 54 52 52 52 52 51 51 50 50 49 49 49 47
54 51 49 49 51 44 59 64 67 63 64 64 63 62 63 63 63 63 66 65 64 63 62 61 60 59 58 57 56 56 55 53 53 51 52 52 52 51 50 51 52 52 51 47
58 51 46 47 44 52 59 63 63 61 60 64 67 63 63 61 62 58 65 67 66 65 64 62 61 59 56 56 56 56 53 53 53 52 52 53 53 54 54 49 50 53 50 49
58 55 52 45 45 44 56 64 68 66 54 67 65 64 60 62 54 57 64 68 64 62 62 59 57 57 56 55 57 53 52 52 52 53 53 56 56 56 52 51 53 52 51 50
53 51 50 44 46 53 60 66 68 54 56 64 65 63 60 60 64 65 64 62 62 60 59 58 57 57 57 55 54 52 51 51 54 54 57 57 55 53 53 49 52 52 51 49
51 50 49 48 45 47 62 64 61 61 58 62 60 60 62 57 58 58 59 58 58 57 57 58 55 55 56 53 54 51 50 54 54 55 56 55 54 55 53 48 48 52 50 48
50 51 50 52 51 57 59 60 62 61 62 61 61 58 59 57 55 55 56 57 57 57 56 57 55 53 51 52 53 51 52 52 53 51 52 54 54 53 49 48 47 45 45 48
53 54 51 54 55 58 61 63 64 64 61 62 60 59 59 56 56 55 55 55 55 55 55 55 54 52 50 52 53 53 51 52 51 49 50 48 47 47 47 47 49 51 49 48
54 53 52 54 58 60 63 61 62 62 62 62 61 60 58 57 55 55 54 54 55 54 55 56 55 53 51 51 51 51 52 51 49 48 47 46 47 46 46 48 52 53 52 51
54 54 51 52 59 59 61 64 65 63 62 61 61 59 59 58 57 57 55 55 55 54 54 52 51 52 51 52 52 51 52 51 48 47 47 46 46 46 47 48 52 47 46 46
MSLP
1007.14 1007.85 1007.88 1008.07 1008.28 1008.33 1008.72 1009.14 1009.61 1009.28 1009.07 1009.80 1010.06 1010.48 1010.42 1010.61 1011.61 1012.39 1012.81 1013.52 1014.50 1015.67 1016.64 1017.38 1018.11 1018.58 1019.12 1019.76 1020.15 1019.90 1020.09 1021.28 1022.10 1022.55 1022.96 1023.19 1023.01 1022.87 1022.80 1022.74 1022.56 1022.27 1022.07 1021.84
1007.45 1007.43 1007.48 1007.66 1007.98 1007.89 1008.39 1008.73 1008.90 1008.72 1008.81 1009.67 1010.00 1009.88 1010.10 1010.35 1010.47 1010.95 1011.79 1013.06 1014.28 1015.55 1016.70 1017.69 1018.60 1019.51 1019.66 1019.57 1020.00 1020.31 1020.62 1020.96 1021.22 1022.26 1022.53 1022.66 1022.81 1022.97 1022.89 1022.72 1022.37 1022.19 1021.99 1021.80
1007.16 1007.06 1007.03 1007.26 1007.59 1007.80 1008.03 1008.24 1008.39 1008.67 1009.01 1009.62 1010.29 1010.27 1010.11 1010.35 1010.40 1010.97 1011.60 1012.56 1013.73 1014.74 1015.94 1017.55 1018.46 1019.35 1020.14 1020.27 1019.97 1020.54 1020.64 1020.98 1021.39 1021.89 1022.46 1022.92 1023.00 1023.38 1023.27 1022.91 1022.51 1022.18 1021.89 1021.57
1007.12 1006.48 1006.59 1006.86 1007.00 1007.26 1007.54 1007.27 1007.95 1008.85 1010.03 1010.49 1010.63 1010.83 1010.12 1010.30 1010.61 1010.83 1011.56 1012.24 1012.85 1013.46 1015.71 1016.46 1017.67 1018.82 1019.43 1019.68 1019.98 1020.60 1020.94 1021.47 1021.45 1021.91 1022.53 1023.03 1023.24 1023.35 1023.33 1023.05 1022.76 1022.34 1021.88 1021.64
1006.69 1006.31 1006.25 1006.44 1006.25 1006.61 1006.78 1006.98 1008.01 1008.81 1010.03 1011.02 1011.47 1011.72 1010.26 1010.44 1010.75 1010.92 1010.92 1011.32 1011.88 1013.28 1014.36 1015.76 1016.85 1017.95 1018.75 1019.33 1019.98 1020.69 1020.99 1021.68 1021.80 1022.19 1022.50 1022.88 1023.14 1023.21 1023.20 1023.13 1023.03 1022.67 1022.08 1021.71
1006.54 1006.06 1005.81 1005.69 1005.65 1006.08 1006.42 1007.09 1008.27 1009.59 1010.98 1011.80 1011.27 1011.66 1010.49 1010.42 1009.66 1009.68 1010.31 1010.42 1011.67 1012.72 1013.80 1015.04 1016.25 1017.39 1018.55 1019.50 1020.01 1020.35 1021.01 1021.89 1021.65 1022.17 1022.42 1022.68 1022.92 1023.18 1023.41 1023.07 1022.94 1022.61 1022.22 1021.93
1006.56 1006.12 1005.48 1005.35 1005.64 1006.04 1006.73 1008.13 1009.57 1011.09 1012.12 1011.90 1011.32 1011.92 1010.36 1008.81 1008.59 1008.85 1009.06 1010.11 1011.51 1012.91 1013.74 1014.74 1016.01 1017.23 1018.27 1019.19 1019.78 1020.23 1020.94 1021.83 1021.72 1022.03 1022.41 1022.57 1022.79 1023.04 1023.13 1022.98 1022.87 1022.73 1022.52 1022.21
1006.61 1006.10 1005.27 1004.93 1005.09 1005.76 1006.69 1007.82 1009.41 1010.62 1011.96 1011.69 1011.51 1010.86 1008.77 1008.06 1008.50 1009.08 1009.68 1010.54 1011.41 1012.26 1013.77 1014.70 1015.61 1016.66 1017.69 1018.73 1019.30 1019.70 1020.94 1021.71 1021.84 1022.03 1022.41 1022.45 1022.52 1023.06 1022.98 1022.93 1022.81 1022.73 1022.65 1022.39
1006.27 1005.69 1004.52 1004.17 1004.45 1005.17 1006.42 1007.50 1008.00 1009.89 1011.34 1011.76 1010.97 1009.80 1008.19 1008.11 1008.73 1009.53 1010.19 1010.81 1011.50 1012.60 1013.34 1014.13 1015.18 1016.03 1017.08 1018.08 1018.69 1019.19 1020.49 1021.48 1021.66 1021.94 1022.28 1022.30 1022.36 1022.65 1022.76 1022.62 1022.76 1022.72 1022.44 1022.16
1005.46 1005.51 1004.38 1003.69 1003.95 1004.75 1005.31 1006.21 1008.15 1010.03 1011.15 1011.80 1011.10 1010.03 1008.59 1008.26 1008.59 1009.29 1010.12 1010.34 1011.04 1012.10 1013.17 1014.12 1014.83 1015.70 1016.72 1017.59 1018.37 1019.05 1020.03 1020.90 1021.38 1021.68 1021.92 1022.14 1022.26 1022.29 1022.36 1022.59 1022.64 1022.66 1022.34 1022.06
1005.14 1005.53 1005.30 1004.39 1004.34 1004.72 1005.62 1006.21 1007.52 1009.04 1010.17 1010.83 1010.73 1009.66 1007.07 1006.79 1007.19 1008.21 1008.96 1009.84 1010.51 1011.65 1012.74 1013.69 1014.43 1015.47 1016.29 1017.20 1018.09 1018.73 1019.85 1020.64 1021.22 1021.52 1021.79 1021.97 1022.16 1022.12 1022.29 1022.46 1022.40 1022.43 1022.28 1022.07
1004.62 1005.31 1005.56 1005.19 1004.28 1004.21 1004.71 1005.47 1006.74 1008.70 1009.62 1010.05 1009.52 1007.66 1005.86 1006.15 1006.50 1007.51 1008.67 1009.42 1010.43 1011.35 1012.41 1013.46 1014.45 1015.28 1016.13 1016.86 1017.81 1018.45 1019.57 1020.22 1020.87 1021.07 1021.43 1021.87 1022.04 1022.06 1022.21 1022.18 1022.24 1022.12 1022.10 1021.86
1004.03 1005.12 1005.56 1005.31 1004.85 1004.29 1004.29 1004.84 1005.61 1006.57 1007.64 1008.67 1008.87 1007.02 1005.91 1006.18 1006.88 1007.51 1008.42 1009.54 1010.48 1011.20 1012.27 1013.32 1014.32 1014.96 1015.73 1016.56 1017.58 1018.39 1019.30 1019.98 1020.54 1020.77 1021.29 1021.75 1021.83 1021.87 1021.96 1022.02 1021.99 1021.96 1021.88 1021.83
1002.49 1004.24 1004.72 1004.75 1004.22 1003.60 1003.78 1004.11 1004.63 1005.56 1006.91 1007.16 1007.12 1006.32 1006.02 1006.33 1006.65 1007.44 1008.49 1009.47 1010.33 1011.00 1012.12 1013.18 1014.11 1014.79 1015.53 1016.41 1017.27 1018.19 1019.16 1019.76 1020.10 1020.59 1021.14 1021.58 1021.62 1021.62 1021.57 1021.72 1021.73 1021.74 1021.71 1021.73
1002.54 1004.08 1004.20 1003.74 1003.53 1003.44 1003.16 1003.38 1003.83 1004.60 1004.70 1005.66 1005.28 1005.50 1004.81 1004.99 1005.66 1006.55 1007.52 1009.01 1010.09 1011.13 1012.06 1012.71 1013.47 1014.56 1015.46 1016.38 1017.31 1018.24 1018.97 1019.39 1019.88 1020.55 1021.08 1021.17 1021.09 1021.47 1021.49 1021.57 1021.63 1021.62 1021.55 1021.51
1003.00 1003.73 1004.06 1004.06 1003.52 1003.35 1003.14 1002.97 1003.01 1003.46 1003.73 1003.95 1004.11 1004.24 1003.82 1004.74 1005.58 1006.83 1007.49 1008.57 1009.49 1010.36 1011.35 1012.35 1013.34 1014.19 1015.06 1016.00 1017.01 1017.92 1018.54 1019.13 1019.76 1020.36 1020.61 1020.61 1020.93 1021.19 1021.32 1021.42 1021.47 1021.39 1021.35 1021.37
1003.32 1003.98 1004.81 1004.69 1003.77 1003.51 1003.32 1002.70 1002.74 1002.98 1002.86 1003.04 1003.49 1003.58 1003.89 1004.81 1005.50 1006.10 1007.03 1007.75 1008.52 1009.48 1010.45 1011.58 1012.33 1013.34 1014.50 1015.47 1016.47 1017.34 1018.13 1019.04 1019.70 1019.98 1020.27 1020.42 1020.61 1020.92 1021.07 1021.05 1021.15 1021.07 1021.14 1021.17
1003.36 1004.24 1004.89 1005.32 1004.65 1004.10 1003.03 1002.53 1002.18 1002.46 1002.47 1002.45 1002.96 1003.24 1003.85 1004.12 1004.54 1005.50 1006.22 1006.72 1008.04 1009.06 1010.11 1011.19 1012.20 1013.16 1014.33 1015.38 1016.44 1017.30 1018.24 1018.95 1019.48 1019.81 1020.03 1020.12 1020.28 1020.47 1020.61 1020.72 1020.84 1020.84 1020.84 1020.90
1002.65 1004.25 1005.58 1005.80 1005.47 1004.72 1003.29 1002.66 1002.25 1002.26 1002.55 1002.28 1002.52 1003.14 1003.80 1004.29 1005.28 1005.83 1005.79 1006.36 1006.75 1007.44 1008.87 1010.31 1011.68 1012.96 1014.34 1015.39 1016.32 1017.41 1018.22 1018.82 1019.34 1019.58 1019.71 1019.90 1020.04 1020.16 1020.33 1020.55 1020.58 1020.44 1020.60 1020.61
1003.08 1003.70 1004.97 1006.29 1005.93 1004.93 1003.20 1002.04 1001.85 1001.84 1002.31 1002.12 1002.66 1003.47 1004.40 1004.85 1005.94 1005.63 1005.81 1006.69 1007.59 1008.55 1009.47 1010.56 1011.85 1013.24 1014.39 1015.44 1016.46 1017.41 1018.16 1018.67 1019.10 1019.17 1019.30 1019.40 1019.49 1019.77 1020.00 1020.14 1020.14 1020.17 1020.26 1020.27
1004.23 1004.94 1005.59 1006.02 1005.52 1004.40 1002.69 1002.09 1002.20 1002.62 1002.81 1002.08 1002.52 1003.16 1004.33 1004.62 1004.47 1004.51 1005.24 1006.41 1007.36 1008.73 1009.99 1011.25 1012.14 1013.25 1014.36 1015.53 1016.54 1017.47 1018.01 1018.55 1018.60 1018.73 1018.92 1019.08 1019.18 1019.50 1019.67 1019.96 1020.06 1019.99 1020.08 1020.14
1005.30 1005.57 1005.92 1005.88 1005.45 1004.60 1003.20 1002.83 1002.63 1002.02 1001.96 1002.06 1002.73 1003.29 1003.99 1004.84 1005.42 1005.96 1006.76 1007.25 1007.96 1009.25 1010.79 1011.81 1012.61 1013.77 1014.85 1015.72 1016.57 1017.54 1018.01 1018.02 1018.33 1018.53 1018.68 1018.94 1019.20 1019.46 1019.65 1019.93 1019.96 1019.91 1020.00 1020.11
1006.14 1006.01 1005.57 1005.59 1004.88 1004.04 1003.38 1002.94 1002.21 1002.24 1002.34 1002.53 1003.13 1003.55 1004.17 1005.58 1006.39 1007.11 1008.14 1008.87 1009.31 1010.00 1011.23 1012.23 1013.14 1014.38 1015.45 1016.12 1016.70 1017.50 1017.73 1017.99 1018.19 1018.49 1018.64 1018.90 1019.21 1019.49 1019.65 1019.82 1019.92 1019.98 1020.10 1020.15
1006.27 1006.10 1006.04 1005.36 1004.70 1003.98 1003.15 1002.61 1002.44 1002.59 1002.86 1002.93 1003.51 1004.41 1005.03 1006.02 1007.31 1008.08 1008.90 1009.72 1010.45 1010.93 1011.77 1012.70 1013.81 1015.06 1016.08 1016.55 1016.99 1017.24 1017.63 1017.83 1018.24 1018.70 1019.00 1019.30 1019.58 1019.68 1019.73 1019.66 1019.64 1019.67 1019.78 1019.99
1006.70 1006.50 1006.11 1005.30 1004.50 1003.96 1003.16 1002.85 1002.60 1002.80 1003.26 1003.71 1004.41 1005.19 1006.06 1006.88 1008.16 1008.60 1009.53 1010.40 1011.13 1011.74 1012.47 1013.27 1014.36 1015.41 1016.19 1016.63 1017.06 1017.40 1017.70 1018.05 1018.56 1018.89 1019.24 1019.54 1019.60 1019.62 1019.50 1019.34 1019.18 1019.15 1019.14 1019.37
1006.26 1005.68 1005.78 1004.99 1004.21 1004.06 1003.56 1002.97 1002.69 1003.32 1003.73 1004.40 1004.91 1006.28 1007.15 1007.38 1008.08 1009.10 1010.09 1010.79 1011.47 1012.35 1013.16 1014.04 1014.91 1015.60 1016.18 1016.62 1017.07 1017.51 1017.74 1017.99 1018.59 1019.05 1019.44 1019.47 1019.45 1019.37 1019.24 1019.15 1018.85 1018.68 1018.58 1018.75
Wind_Speed
3 5 6 9 4 5 7 7 8 6 7 5 11 7 13 17 12 13 16 15 15 15 10 11 11 13 12 8 6 8 10 7 5 2 3 1 2 0 1 2 3 3 3 4
4 6 8 4 3 2 4 6 4 4 3 4 1 5 9 16 19 19 20 17 17 13 13 13 12 8 5 9 8 7 7 6 6 3 2 3 2 1 1 2 4 4 4 4
6 3 7 6 4 4 4 6 5 5 3 3 3 9 4 6 7 15 14 16 16 18 19 13 13 9 8 8 8 7 7 7 5 6 4 3 3 3 3 2 3 4 6 6
4 4 5 4 5 7 3 8 4 4 4 5 4 6 5 3 9 14 14 15 18 19 14 16 15 13 10 8 8 6 7 5 6 6 4 3 3 2 2 2 2 4 5 6
8 6 5 5 7 6 10 8 8 6 5 4 0 3 8 4 2 7 14 17 20 17 19 19 16 13 10 10 9 6 7 6 6 6 6 4 3 1 1 1 4 4 4 4
9 1 5 8 6 8 2 1 7 6 4 1 7 7 8 6 9 11 9 18 17 19 20 17 16 14 11 8 8 8 8 6 7 6 6 6 5 2 1 2 2 3 3 4
1 6 4 4 2 2 6 7 4 5 2 8 4 4 12 8 9 8 18 12 14 15 18 18 19 15 13 12 11 9 8 7 6 6 5 5 4 2 1 1 2 3 3 2
7 4 8 3 9 7 7 11 8 8 5 7 5 7 10 3 3 3 6 9 15 17 14 16 17 16 15 14 12 10 9 7 6 6 5 5 5 2 1 2 2 2 2 4
6 6 4 6 7 13 5 4 6 5 2 3 5 7 9 5 4 4 6 8 14 14 17 18 18 16 16 15 14 13 10 7 7 7 5 5 4 3 2 2 2 3 3 4
7 1 4 2 5 2 8 8 3 3 2 5 4 5 8 6 11 9 13 14 15 14 17 16 16 16 14 13 10 10 10 10 7 7 6 5 4 3 3 1 3 4 4 3
7 5 4 3 3 7 2 2 5 6 6 7 3 8 9 11 11 17 13 14 14 16 17 16 14 14 14 12 11 11 10 9 7 7 6 5 4 3 2 3 3 3 4 4
8 6 5 9 6 4 6 7 8 6 7 2 4 8 5 7 8 8 8 8 12 14 16 12 12 14 14 13 12 12 11 9 8 7 6 6 5 3 3 3 3 3 4 4
10 4 2 9 5 1 5 5 5 4 5 8 6 8 2 3 6 6 10 9 11 15 12 12 12 14 14 13 12 11 11 9 8 7 7 6 6 5 4 3 3 3 4 3
14 4 10 11 8 5 5 5 6 6 4 4 7 6 6 7 9 9 9 12 14 14 14 12 12 13 12 12 11 11 10 9 8 7 6 6 7 6 5 4 4 3 3 3
9 9 7 8 8 4 3 2 5 7 7 7 9 11 10 14 16 16 14 13 13 14 15 15 15 11 11 11 10 10 10 9 8 7 6 7 6 5 4 4 4 4 4 4
2 5 8 6 6 7 4 4 0 5 2 4 3 6 5 7 9 10 15 15 15 16 16 16 15 14 14 14 12 12 11 10 8 8 8 6 5 4 4 4 4 4 4 4
5 7 5 8 4 7 1 3 2 4 3 5 3 6 3 3 9 14 15 18 19 19 19 18 19 17 15 14 13 12 11 9 9 7 6 6 5 4 4 4 4 4 4 3
6 6 3 4 3 4 7 2 4 5 3 4 1 4 7 8 6 8 13 19 17 17 16 15 13 13 12 10 10 10 10 10 9 7 6 6 5 6 5 4 4 3 3 4
4 6 4 6 4 4 2 5 7 5 4 3 7 5 5 7 6 2 9 14 20 22 18 14 12 12 10 12 11 11 10 9 8 7 6 6 5 5 4 4 5 4 2 3
7 7 6 3 5 7 10 3 3 3 4 8 5 7 9 6 5 6 9 9 7 8 9 13 13 12 12 9 12 11 10 8 8 7 7 6 5 5 5 5 4 3 3 3
3 3 6 3 3 6 7 5 3 6 11 4 5 7 9 7 6 6 13 9 10 11 14 13 14 13 12 11 10 9 8 8 9 6 5 5 5 6 5 3 2 2 1 2
3 4 3 3 4 3 5 4 8 8 3 3 4 5 8 5 7 8 9 14 17 18 16 13 12 11 10 9 9 7 7 8 6 6 6 6 5 4 3 3 2 1 1 2
2 3 4 6 6 4 5 5 6 2 3 4 5 2 11 9 6 8 10 12 14 16 13 11 12 11 7 7 7 7 6 6 6 6 7 5 4 3 3 3 2 1 1 1
2 0 1 3 3 5 4 3 2 4 1 4 4 6 6 12 10 13 12 12 11 12 13 12 13 10 7 6 6 6 6 6 6 6 5 3 3 2 2 2 2 3 3 2
4 2 3 3 6 5 2 3 2 5 7 11 9 6 9 14 10 13 13 12 11 11 11 11 11 9 8 7 7 6 6 6 6 5 4 3 3 3 3 3 4 4 3 4
4 6 5 6 4 3 6 5 1 5 7 8 14 8 6 8 14 14 11 10 12 12 9 8 7 9 7 7 7 6 6 7 6 5 4 3 2 3 2 3 4 4 8 8
Wind_Direction
198 110 179 201 206 160 137 134 176 229 187 170 201 187 186 178 175 166 177 176 169 171 149 145 142 140 137 132 128 114 114 108 109 102 116 91 140 87 13 332 331 355 344 338
54 202 200 148 173 100 146 163 216 259 154 212 85 250 199 187 194 187 184 173 173 157 151 151 147 147 151 140 132 113 112 135 129 145 171 162 170 186 246 286 306 313 323 322
155 227 151 166 172 153 201 178 219 215 35 78 50 303 161 220 212 198 197 178 172 172 167 163 156 149 146 149 126 124 123 125 111 112 109 70 53 24 338 318 312 321 326 323
229 251 163 156 216 149 227 210 202 178 101 236 137 261 287 212 222 204 186 173 178 183 162 160 160 160 165 146 118 128 123 122 117 128 117 144 146 164 249 278 294 308 337 337
234 203 176 187 217 135 233 139 184 177 180 127 195 101 267 46 151 180 189 184 191 171 163 170 165 156 144 140 146 140 120 133 132 138 140 138 131 117 296 301 330 326 332 343
211 221 159 200 225 180 269 68 48 53 100 188 224 152 276 195 195 202 195 201 173 169 172 164 150 146 143 146 151 148 137 171 144 147 151 142 133 146 1 354 343 331 325 331
317 266 260 163 223 30 90 67 328 337 2 229 176 112 243 236 207 201 200 176 169 170 168 160 153 154 153 162 164 158 148 175 167 154 152 141 128 154 213 292 284 315 328 317
170 277 193 198 174 178 182 163 169 213 208 248 137 216 251 251 114 184 173 165 169 184 168 160 158 159 164 170 168 158 161 166 176 160 163 143 143 180 216 261 285 289 283 289
143 253 248 195 181 151 204 177 195 138 29 79 232 285 306 181 229 162 192 177 189 177 175 169 167 166 168 174 174 155 162 177 178 173 165 159 164 171 215 248 274 285 294 290
207 269 227 212 115 130 156 167 97 5 150 228 276 280 244 226 219 206 196 204 188 173 176 174 176 167 169 171 165 146 160 178 181 169 174 177 186 188 216 239 270 282 292 310
144 136 288 83 166 188 86 218 54 123 139 171 184 258 222 220 197 200 208 201 183 173 175 180 173 165 166 165 163 156 165 169 175 175 173 169 193 207 211 225 262 294 305 308
186 163 227 222 242 190 165 201 157 145 253 183 165 264 257 214 229 149 170 171 178 165 173 168 161 160 166 166 167 163 173 171 179 172 165 186 198 207 212 215 261 274 286 307
169 208 83 340 1 146 198 194 180 132 96 196 160 257 348 141 146 154 147 155 162 166 155 155 160 169 171 169 168 167 174 173 173 159 167 186 206 211 217 238 259 277 283 307
142 129 177 210 202 178 172 192 170 144 124 179 218 238 246 221 196 166 155 164 172 170 159 163 164 172 167 166 168 170 171 172 166 161 172 190 208 211 210 239 249 273 277 289
135 188 170 220 213 210 259 262 167 188 215 159 253 202 230 202 198 188 169 164 165 164 172 175 169 166 162 164 167 174 171 165 164 163 183 207 204 210 221 247 263 275 268 269
8 212 166 233 206 210 231 220 178 214 208 244 237 254 258 69 104 154 178 175 174 177 180 178 172 168 171 171 170 170 167 169 164 176 195 204 192 208 229 252 274 280 258 278
140 134 108 233 173 179 251 202 183 256 258 162 165 228 134 133 170 177 176 185 183 183 179 180 180 176 175 173 165 167 165 164 175 181 195 204 203 211 230 239 253 266 266 266
140 108 105 189 83 223 239 203 161 162 223 180 202 172 188 190 188 157 186 180 183 181 180 181 175 169 172 158 156 147 160 168 176 189 193 206 204 219 218 230 257 239 240 257
148 123 94 129 157 271 286 193 173 162 251 240 192 182 184 107 66 335 182 189 190 183 179 176 167 153 142 149 145 156 161 168 178 193 198 206 214 235 200 232 233 244 233 255
86 82 107 123 139 189 230 199 174 90 294 224 188 205 148 145 139 242 182 177 155 147 150 146 137 136 140 139 153 154 165 168 192 197 204 206 200 208 194 220 216 225 224 256
56 36 136 136 146 284 247 192 187 91 236 188 195 197 162 188 197 164 145 140 132 129 127 128 135 143 143 142 145 156 155 182 206 200 188 196 174 175 187 211 237 242 293 263
189 139 150 92 92 245 345 37 153 222 202 155 150 184 153 84 77 81 101 123 124 124 128 134 124 127 132 133 135 146 170 205 200 196 176 163 173 180 177 201 244 270 336 36
326 201 174 159 215 239 247 229 273 218 194 166 171 98 115 110 89 98 112 114 121 126 126 125 122 117 109 122 138 149 206 194 177 155 161 163 165 176 187 202 233 185 111 117
308 50 60 64 270 266 286 284 35 12 247 110 87 103 89 118 122 116 114 117 117 121 120 119 118 125 132 146 149 156 172 157 138 145 145 148 167 215 235 233 233 229 187 192
215 342 218 252 286 295 267 31 22 90 83 87 73 81 121 120 117 122 119 121 121 118 119 126 133 146 157 151 153 165 161 142 143 157 157 191 191 221 254 258 244 239 221 190
189 192 176 219 208 171 255 297 103 133 124 122 114 98 98 128 127 125 122 126 130 129 126 122 132 144 155 158 157 160 164 152 152 155 170 195 206 246 256 264 300 252 249 231